Three Rivers, MI

2:41 PM EDT on September 30, 2016 (GMT -0400)
Three Rivers Municipal-Haines

Weather History for KHAI - December, 2011

Change the Weather History Date:

Thursday, December 15, 2011

  Actual Average Record
Temperature  
Mean Temperature 44 °F -  
Max Temperature 55 °F 37 °F 61 °F (1971)
Min Temperature 33 °F 21 °F -6 °F (1958)
Degree Days  
Heating Degree Days 21    
Moisture  
Dew Point 42 °F    
Average Humidity 88    
Maximum Humidity 100    
Minimum Humidity 75    
Precipitation  
Precipitation 0.00 in - - ()
Sea Level Pressure  
Sea Level Pressure 29.81 in    
Wind  
Wind Speed 16 mph (WSW)    
Max Wind Speed 30 mph    
Max Gust Speed 37 mph    
Visibility 8 miles    
Events Rain    
Averages and records for this station are not official NWS values.
T = Trace of Precipitation, MM = Missing Value Source: NWS Daily Summary

Daily Weather History Graph

Daily Weather History Graph

Search for Another Location

Airport or City:

Trip Planner

Search our weather history database for the weather conditions in past years. The results will help you decide how hot, cold, wet, or windy it might be!

Date:

Astronomy

Dec. 15, 2011 Rise Set
Actual Time 8:03 AM EST 5:11 PM EST
Civil Twilight 7:31 AM EST 5:43 PM EST
Nautical Twilight 6:56 AM EST 6:18 PM EST
Astronomical Twilight 6:22 AM EST 6:52 PM EST
Moon 10:41 PM EST (12/15) 11:15 AM EST (12/15)
Length of Visible Light 10h 12m
Length of Day
9h 08m
Waning Gibbous, 75% of the Moon is Illuminated
Dec 15
Waning Gibbous
Dec 17
Last Quarter
Dec 24
New
Jan 1
First Quarter
Jan 9
Full

Hourly Weather History & Observations

Time (EST) Temp. Windchill Dew Point Humidity Pressure Visibility Wind Dir Wind Speed Gust Speed Precip Events Conditions
12:14 AM 51.8 °F - 51.8 °F 100% 29.74 in 2.5 mi SSW 18.4 mph - N/A   Drizzle
12:35 AM 53.6 °F - 51.8 °F 94% 29.74 in 2.5 mi SSW 17.3 mph 21.9 mph N/A   Drizzle
12:55 AM 53.6 °F - 53.6 °F 100% 29.73 in 3.0 mi SSW 19.6 mph 24.2 mph N/A   Light Drizzle
1:14 AM 53.6 °F - 53.6 °F 100% 29.72 in 2.5 mi SSW 16.1 mph 23.0 mph N/A Rain Light Rain
1:35 AM 53.6 °F - 53.6 °F 100% 29.71 in 2.5 mi SSW 16.1 mph - N/A Rain Light Rain
1:55 AM 53.6 °F - 53.6 °F 100% 29.70 in 3.0 mi SSW 17.3 mph 23.0 mph N/A Rain Light Rain
2:15 AM 53.6 °F - 53.6 °F 100% 29.70 in 3.0 mi SSW 15.0 mph 19.6 mph N/A Rain Rain
2:35 AM 53.6 °F - 53.6 °F 100% 29.69 in 3.0 mi SSW 17.3 mph 24.2 mph N/A   Drizzle
2:54 AM 53.6 °F - 53.6 °F 100% 29.69 in 2.5 mi SSW 16.1 mph 23.0 mph N/A Rain Rain
3:15 AM 53.6 °F - 53.6 °F 100% 29.68 in 3.0 mi SSW 13.8 mph 19.6 mph N/A Rain Rain
3:55 AM 53.6 °F - 53.6 °F 100% 29.67 in 3.0 mi SSW 10.4 mph - N/A   Drizzle
4:15 AM 53.6 °F - 53.6 °F 100% 29.66 in 5.0 mi SSW 12.7 mph 20.7 mph N/A   Light Drizzle
4:34 AM 53.6 °F - 53.6 °F 100% 29.66 in 2.5 mi SSW 12.7 mph 16.1 mph N/A Rain Light Rain
4:55 AM 53.6 °F - 53.6 °F 100% 29.66 in 4.0 mi SW 15.0 mph 20.7 mph N/A   Drizzle
5:15 AM 55.4 °F - 53.6 °F 94% 29.66 in 10.0 mi SW 9.2 mph 20.7 mph N/A   Light Drizzle
5:34 AM 55.4 °F - 53.6 °F 94% 29.65 in 7.0 mi SW 9.2 mph - N/A   Light Drizzle
5:55 AM 55.4 °F - 53.6 °F 94% 29.65 in 10.0 mi WSW 10.4 mph - N/A Rain Light Rain
6:14 AM 55.4 °F - 53.6 °F 94% 29.65 in 7.0 mi WSW 10.4 mph - N/A Rain Rain
6:34 AM 55.4 °F - 53.6 °F 94% 29.65 in 10.0 mi SW 6.9 mph 16.1 mph N/A   Overcast
7:14 AM 55.4 °F - 53.6 °F 94% 29.65 in 10.0 mi SW 11.5 mph 17.3 mph N/A   Overcast
7:35 AM 55.4 °F - 53.6 °F 94% 29.65 in 10.0 mi WSW 15.0 mph 20.7 mph N/A   Overcast
7:55 AM 55.4 °F - 51.8 °F 88% 29.65 in 10.0 mi WSW 12.7 mph 18.4 mph N/A   Overcast
8:35 AM 53.6 °F - 51.8 °F 94% 29.66 in 10.0 mi WSW 11.5 mph 19.6 mph N/A Rain Light Rain
8:55 AM 53.6 °F - 51.8 °F 94% 29.66 in 10.0 mi West 10.4 mph 19.6 mph N/A Rain Light Rain
9:14 AM 51.8 °F - 50.0 °F 94% 29.68 in 10.0 mi West 23.0 mph 31.1 mph N/A   Light Drizzle
9:35 AM 50.0 °F - 48.2 °F 94% 29.69 in 7.0 mi West 17.3 mph - N/A Rain Light Rain
10:14 AM 48.2 °F - 44.6 °F 87% 29.71 in 10.0 mi West 21.9 mph 28.8 mph N/A   Overcast
10:35 AM 48.2 °F - 44.6 °F 87% 29.72 in 10.0 mi West 19.6 mph 27.6 mph N/A   Overcast
10:55 AM 46.4 °F 39.5 °F 44.6 °F 93% 29.73 in 10.0 mi West 17.3 mph 24.2 mph N/A   Overcast
11:14 AM 46.4 °F 40.7 °F 42.8 °F 87% 29.74 in 10.0 mi West 12.7 mph 23.0 mph N/A   Overcast
11:35 AM 46.4 °F 39.2 °F 42.8 °F 87% 29.74 in 10.0 mi West 18.4 mph 21.9 mph N/A   Overcast
11:54 AM 46.4 °F 39.2 °F 42.8 °F 87% 29.75 in 10.0 mi West 18.4 mph 27.6 mph N/A   Overcast
12:15 PM 46.4 °F 40.1 °F 41.0 °F 81% 29.75 in 10.0 mi WSW 15.0 mph 23.0 mph N/A   Overcast
12:35 PM 44.6 °F 38.4 °F 41.0 °F 87% 29.75 in 10.0 mi WSW 12.7 mph 21.9 mph N/A   Overcast
12:54 PM 44.6 °F 40.2 °F 41.0 °F 87% 29.75 in 10.0 mi WSW 8.1 mph 20.7 mph N/A   Overcast
1:34 PM 44.6 °F 38.1 °F 39.2 °F 81% 29.76 in 10.0 mi West 13.8 mph 23.0 mph N/A   Overcast
2:15 PM 44.6 °F 37.2 °F 37.4 °F 76% 29.78 in 10.0 mi West 17.3 mph 24.2 mph N/A   Overcast
2:34 PM 42.8 °F 34.8 °F 37.4 °F 81% 29.78 in 10.0 mi WSW 17.3 mph 24.2 mph N/A   Overcast
2:55 PM 42.8 °F 34.5 °F 37.4 °F 81% 29.79 in 10.0 mi WSW 18.4 mph 24.2 mph N/A   Overcast
3:15 PM 42.8 °F 37.0 °F 35.6 °F 76% 29.79 in 10.0 mi WSW 10.4 mph 19.6 mph N/A   Overcast
3:34 PM 42.8 °F 35.4 °F 35.6 °F 76% 29.80 in 10.0 mi WSW 15.0 mph 23.0 mph N/A   Overcast
3:55 PM 41.0 °F 33.1 °F 35.6 °F 81% 29.82 in 10.0 mi WSW 15.0 mph 24.2 mph N/A   Overcast
4:15 PM 41.0 °F 31.6 °F 35.6 °F 81% 29.84 in 10.0 mi West 20.7 mph 28.8 mph N/A   Overcast
4:34 PM 41.0 °F 33.1 °F 33.8 °F 76% 29.85 in 10.0 mi West 15.0 mph 27.6 mph N/A   Overcast
4:55 PM 41.0 °F 33.1 °F 33.8 °F 76% 29.87 in 10.0 mi WSW 15.0 mph 23.0 mph N/A   Overcast
5:14 PM 41.0 °F 31.4 °F 33.8 °F 76% 29.88 in 10.0 mi West 21.9 mph 32.2 mph N/A   Overcast
5:35 PM 39.2 °F 28.3 °F 33.8 °F 81% 29.89 in 10.0 mi West 25.3 mph 35.7 mph N/A   Overcast
5:55 PM 37.4 °F 25.0 °F 32.0 °F 81% 29.92 in 10.0 mi West 29.9 mph 36.8 mph N/A   Overcast
6:14 PM 35.6 °F 23.7 °F 32.0 °F 87% 29.94 in 10.0 mi West 24.2 mph 32.2 mph N/A   Overcast
6:35 PM 35.6 °F 24.0 °F 32.0 °F 87% 29.96 in 10.0 mi West 23.0 mph 35.7 mph N/A   Overcast
6:55 PM 33.8 °F 21.6 °F 30.2 °F 87% 29.98 in 10.0 mi West 23.0 mph 35.7 mph N/A   Overcast
7:15 PM 33.8 °F 24.3 °F 28.4 °F 81% 30.00 in 10.0 mi West 13.8 mph 29.9 mph N/A   Overcast
7:35 PM 33.8 °F 22.8 °F 28.4 °F 81% 30.01 in 10.0 mi West 18.4 mph 24.2 mph N/A   Overcast
7:55 PM 33.8 °F 23.2 °F 28.4 °F 81% 30.02 in 10.0 mi West 17.3 mph 27.6 mph N/A   Overcast
8:15 PM 33.8 °F 23.2 °F 28.4 °F 81% 30.03 in 10.0 mi West 17.3 mph 25.3 mph N/A   Overcast
8:35 PM 33.8 °F 23.5 °F 28.4 °F 81% 30.04 in 10.0 mi West 16.1 mph 26.5 mph N/A   Overcast
8:54 PM 33.8 °F 23.5 °F 28.4 °F 81% 30.04 in 10.0 mi West 16.1 mph 24.2 mph N/A   Overcast
9:15 PM 33.8 °F 22.5 °F 28.4 °F 81% 30.05 in 10.0 mi West 19.6 mph 25.3 mph N/A   Overcast
9:35 PM 33.8 °F 23.5 °F 28.4 °F 81% 30.06 in 10.0 mi West 16.1 mph 25.3 mph N/A   Overcast
10:34 PM 35.6 °F 24.2 °F 28.4 °F 75% 30.08 in 10.0 mi West 21.9 mph 27.6 mph N/A   Overcast
10:55 PM 35.6 °F 25.2 °F 28.4 °F 75% 30.10 in 10.0 mi West 18.4 mph 25.3 mph N/A   Overcast
11:15 PM 35.6 °F 25.2 °F 28.4 °F 75% 30.10 in 10.0 mi West 18.4 mph 25.3 mph N/A   Overcast
11:34 PM 33.8 °F 23.9 °F 28.4 °F 81% 30.11 in 10.0 mi West 15.0 mph - N/A   Overcast
11:55 PM 33.8 °F 23.5 °F 28.4 °F 81% 30.13 in 10.0 mi WNW 16.1 mph 20.7 mph N/A   Overcast